Location: Chiroubles
(46.1812°N, 4.6660°E)
Time: 00:53:58
(UTC+00:00)

CENTAUR R/B - Pass Details

Date: 15 August 2020
Orbit: 754 x 1434 km, 63.5° (Epoch: 17 September)

Event Time Altitude Azimuth Distance (km) Brightness Sun altitude
Rises 20:51:08 0° 225° (SW) 3,413 5.4 -18.4°
Reaches altitude 10° 20:53:27 10° 228° (SW) 2,552 4.7 -18.7°
Maximum altitude 20:59:24 71° 313° (NW) 1,054 2.8 -19.4°
Drops below altitude 10° 21:06:32 10° 37° (NE) 3,037 5.2 -20.3°
Sets 21:09:30 0° 40° (NE) 4,107 5.9 -20.6°
